Overview Statistics Trail Chart Weather Telemetry Raw packets
 

This is the latest recevied weather packets stored in our database for station/object 4S6DRJ-13. If no packets are shown the sender has not sent any weather packets the latest 10 day(s).

<< 526 527 528 529 530 531 532 >>
Time Temp. Humidity Pressure Rain* Wind** Luminosity Snow
1787642472 29.44° C 79% 1010 hPa 0.25 mm 2.68 m/s, 231° 1133 W/m² -
1787642410 29.44° C 79% 1010 hPa 0.25 mm 3.13 m/s, 241° 885 W/m² -
1787642349 29.44° C 80% 1010 hPa 0.25 mm 2.68 m/s, 212° 184 W/m² -
1787642288 29.44° C 81% 1010.1 hPa 0.25 mm 0.89 m/s, 249° 149 W/m² -
1787642227 29.44° C 80% 1010.2 hPa 0.25 mm 3.13 m/s, 94° 188 W/m² -
1787642166 29.44° C 82% 1010.1 hPa 0.25 mm 2.24 m/s, 201° 309 W/m² -
1787642105 29.44° C 83% 1010 hPa 0.25 mm 2.24 m/s, 214° 1101 W/m² -
1787642044 29.44° C 85% 1009.9 hPa 0.25 mm 0.89 m/s, 276° 927 W/m² -
1787641983 29.44° C 85% 1010.2 hPa 0.25 mm 0 m/s 546 W/m² -
1787641922 29.44° C 84% 1010.1 hPa 0.25 mm 1.34 m/s, 138° 1112 W/m² -
1787641861 29.44° C 84% 1010.1 hPa 0.25 mm 1.34 m/s, 253° 466 W/m² -
1787641800 28.89° C 85% 1010.2 hPa 0.25 mm 0.45 m/s, 253° 467 W/m² -
1787641739 28.89° C 84% 1010.3 hPa 0.25 mm 1.79 m/s, 221° 560 W/m² -
1787641678 28.89° C 85% 1010.2 hPa 0.25 mm 1.79 m/s, 280° 545 W/m² -
1787641618 28.89° C 84% 1010.3 hPa 0.25 mm 2.24 m/s, 299° 750 W/m² -
1787641556 28.89° C 83% 1010.1 hPa 0.25 mm 1.79 m/s, 288° 1144 W/m² -
1787641495 28.89° C 83% 1010.3 hPa 0.25 mm 2.24 m/s, 239° 601 W/m² -
1787641434 29.44° C 83% 1010.1 hPa 0.25 mm 1.34 m/s, 201° 445 W/m² -
1787641373 29.44° C 81% 1010.2 hPa 0.25 mm 0.45 m/s, 201° 174 W/m² -
1787641312 29.44° C 80% 1010.2 hPa 0.25 mm 1.34 m/s, 190° 153 W/m² -
1787641251 29.44° C 79% 1010 hPa 0.25 mm 2.68 m/s, 237° 177 W/m² -
1787641190 29.44° C 78% 1010.3 hPa 0 mm 4.47 m/s, 224° 208 W/m² -
1787641129 29.44° C 79% 1010.3 hPa 0 mm 0.89 m/s, 218° 289 W/m² -
1787641068 29.44° C 78% 1010.3 hPa 0 mm 3.13 m/s, 201° 474 W/m² -
1787641007 29.44° C 77% 1010.4 hPa 0 mm 2.24 m/s, 218° 947 W/m² -

* Rain latest hour (hover to see other rain measurements)
** Current wind speed in m/s (hover to see current wind gust speed)